Location: Ponte Samoggia
(44.5667°N, 11.1333°E)
Time: 17:24:10
(UTC+00:00)

Cosmos 1378 Rocket - Pass Details

Date: 26 May 2022
Orbit: 600 x 627 km, 82.5° (Epoch: 06 July)

Event Time Altitude Azimuth Distance (km) Brightness Sun altitude
Exits shadow 00:22:21 37° 271° (W) 975 4.4 -22.4°
Maximum altitude 00:22:45 38° 284° (WNW) 961 4.4 -22.4°
Drops below altitude 10° 00:26:54 10° 353° (N) 2,009 7.1 -22.2°
Sets 00:29:17 0° 2° (N) 2,923 8.3 -22.0°
